STARLINK-31015, 58521

Orbit data source: Space-Track

STARLINK-31015, 58521 is a payload satellite owned by SpaceX/Seattle (US) in LEO that was launched on Thu, 07 Dec 2023 UTC via an FALCON 9 launch vehicle from the Air Force Eastern Test Range (AFETR). Payload-class satellites include a variety of spacecraft equipped with specific instruments for various scientific and technological missions. These include communications satellites like Starlink; space stations such as the ISS; scientific satellites like the Hubble; Earth observation satellites from companies like Planet Labs, Umbra, and HawkEye 360; GPS; miniature CubeSats for education and research; and military/defense satellites.

Loading next visibility...
Identifier
58521, 2023-191P
Orbit
LEO
Country
Flag of USUS
Related business
Manufacturer
SpaceX/Seattle
Mission
Operational Commercial Communications
Bus & Motor
STARLINK V2M, Unknown motor
Mass
730 kg wet, ~700 kg dry
Launch date (UTC)
2023-12-07 (3 years ago)
Launch vehicle
FALCON 9
Launch site
Air Force Eastern Test Range (AFETR)
Object type
Payload
Rocket body
Debris
Shape & HBR
Box + 2 Pan, 17.7 m
Radar Cross Section
33.884 m², Large (>1 m²)

Expand to show TLE details & history
Last TLE update: 2 days ago

TLE from 2 days ago
0 STARLINK-31015
1 58521U 23191P   26171.46489775  .00016143  00000-0  59481-3 0  9999
2 58521  43.0046 242.6669 0002138 273.1431  86.9176 15.27583648141169
Epoch: 2026-06-20T11:09Z
TLE epoch observation values (Epoch: 2026-06-20T11:09:27.165Z)
Latitude
-0.00003°
Longitude
166.62455°
Altitude
482.736 km
Speed
7.626 km/s
True Right ascension
16h 10m 40s
True Declination
0° 00' 00"
Sunlit
Object was in full shadow at epoch
Visualization orbit readout
Latitude
Unknown
Longitude
Unknown
Altitude
Unknown
Speed
Unknown
Apparent Right ascension
Unknown
Apparent Declination
Unknown
Sunlit
N/A
Visualization observer readout
Local Sidereal Time
21:56:53
Azimuth
Unknown
Elevation
Unknown
Doppler factor
Unknown
Orbital elements
Apogee altitude
486.45 km
Perigee altitude
483.515 km
Semi-major axis
6,863.12 km
Eccentricity
0.00021
Inclination
43.0046°
RAAN
242.6669°
Arg. of periapsis
273.1431°
True anomaly
86.94206°
Mean anomaly
86.9176°
Eccentric anomaly
86.92983°
Mean motion
3.81734 °/min
Orbital period
94.31 mins
BSTAR
0.00059481
Loading maneuver chart data...
Computing Atmospheric mass density...
Loading historical data...
Loading historical data...
Loading historical data...
Loading historical data...
Loading historical data...
Loading historical data...
Loading historical data...

Documentation

Showing up to 5 results
|